Location: ???????
(55.3754°N, 39.3545°E)
Time: 08:53:33
(UTC+00:00)

Cosmos 1805 - Pass Details

Date: 14 April 2026
Orbit: 415 x 416 km, 82.5° (Epoch: 10 May)

Event Time Altitude Azimuth Distance (km) Brightness Sun altitude
Rises 22:23:02 0° 352° (N) 2,378 7.7 -23.7°
Reaches altitude 10° 22:25:09 10° 360° (N) 1,508 6.5 -23.7°
Enters shadow 22:27:48 39° 47° (NE) 646 4.0 -23.5°
